User: anonymous   Login
Location: Nickerson Gardens
(33.9320°N, 118.2484°W)
Time: 00:25:28
(UTC+00:00)
Language:

Envisat - Orbit

View from above orbital plane
View from above orbital plane
View from above satellite
View from above satellite

Ground track
Ground track

The orbit data is extracted from the following two-line orbital elements,

1 27386U 02009A   21065.54750934  .00000034  00000-0  24560-4 0  9996
2 27386  98.1456  64.8793 0001291  92.8147  18.4970 14.38015206996218
Epoch (UTC): 06 March 2021 13:08:24
Eccentricity: 0.0001291
inclination: 98.1456°
perigee height: 764 km
apogee height: 766 km
right ascension of ascending node: 64.8793°
argument of perigee: 92.8147°
revolutions per day: 14.38015206
mean anomaly at epoch: 18.4970°
orbit number at epoch: 99621

The dashed part of the orbit path shows where the satellite is in the earth's shadow,  

DLR